Ourzdine, Morocco

6:55 AM WEST on July 21, 2017 (GMT +0100)
Ourzdine

Weather History for 60230 - September, 2012

Change the Weather History Date:

Tuesday, September 25, 2012

  Actual Average Record
Temperature  
Mean Temperature 77 °F -  
Max Temperature 90 °F 82 °F - ()
Min Temperature 64 °F 59 °F - ()
Cooling Degree Days 12    
Growing Degree Days 27 (Base 50)    
Moisture  
Dew Point 64 °F    
Average Humidity 70    
Maximum Humidity 100    
Minimum Humidity 26    
Precipitation  
Precipitation 0.00 in 0.03 in - ()
Sea Level Pressure  
Sea Level Pressure 30.00 in    
Wind  
Wind Speed 2 mph ()    
Max Wind Speed 10 mph    
Max Gust Speed -    
Visibility 6.1 miles    
Events      
T = Trace of Precipitation, MM = Missing Value Source: Averaged Metar Reports

Daily Weather History Graph

Daily Weather History Graph

Search for Another Location

Airport or City:

Trip Planner

Search our weather history database for the weather conditions in past years. The results will help you decide how hot, cold, wet, or windy it might be!

Date:

Astronomy

Sep. 25, 2012 Rise Set
Actual Time 7:22 AM WEST 7:24 PM WEST
Civil Twilight 6:58 AM WEST 7:48 PM WEST
Nautical Twilight 6:29 AM WEST 8:16 PM WEST
Astronomical Twilight 6:01 AM WEST 8:45 PM WEST
Moon 4:27 PM WEST (9/25) 2:45 AM WEST (9/25)
Length of Visible Light 12h 50m
Length of Day
12h 02m
Waxing Gibbous, 78% of the Moon is Illuminated
Sep 25
Waxing Gibbous
Sep 30
Full
Oct 8
Last Quarter
Oct 15
New
Oct 22
First Quarter

Hourly Weather History & Observations

Time (WEST) Temp. Heat Index Dew Point Humidity Pressure Visibility Wind Dir Wind Speed Gust Speed Precip Events Conditions
12:00 AM 68.0 °F - 66.2 °F 94% - 5.0 mi Calm Calm - N/A   Scattered Clouds
12:30 AM 68.0 °F - 66.2 °F 94% 30.09 in 6.2 mi Calm Calm - N/A   Scattered Clouds
12:47 AM 67 °F - 66 °F 96% 30.06 in 6 mi Calm Calm - -   Partly Cloudy
1:00 AM 66.2 °F - 66.2 °F 100% 30.09 in 6.2 mi Calm Calm - N/A   Scattered Clouds
1:30 AM 66.2 °F - 66.2 °F 100% 30.09 in 6.2 mi Calm Calm - N/A   Scattered Clouds
2:00 AM 66.2 °F - 66.2 °F 100% 30.06 in 6.2 mi Calm Calm - N/A   Scattered Clouds
2:30 AM 66.2 °F - 66.2 °F 100% 30.06 in 6.2 mi Calm Calm - N/A   Scattered Clouds
3:00 AM 66.2 °F - 66.2 °F 100% 30.06 in 6.2 mi Calm Calm - N/A   Scattered Clouds
3:30 AM 66.2 °F - 66.2 °F 100% 30.06 in 6.2 mi Calm Calm - N/A   Scattered Clouds
4:00 AM 66 °F - 66 °F 98% 30.00 in 6 mi Calm Calm - -   Scattered Clouds
4:00 AM 66.2 °F - 66.2 °F 100% 30.04 in 6.2 mi Calm Calm - N/A   Partly Cloudy
4:30 AM 66.2 °F - 66.2 °F 100% 30.04 in 6.2 mi Calm Calm - N/A   Partly Cloudy
5:00 AM 66.2 °F - 66.2 °F 100% 30.04 in 6.2 mi Calm Calm - N/A   Partly Cloudy
5:30 AM 66.2 °F - 64.4 °F 94% 30.04 in 6.2 mi Calm Calm - N/A   Partly Cloudy
6:00 AM 66.2 °F - 64.4 °F 94% 30.04 in 6.2 mi Calm Calm - N/A   Partly Cloudy
6:30 AM 64.4 °F - 64.4 °F 100% 30.04 in 6.2 mi Calm Calm - N/A   Partly Cloudy
6:46 AM 64 °F - 64 °F 100% 30.00 in 6 mi Calm Calm - -  
7:00 AM 64.4 °F - 64.4 °F 100% 30.04 in - Calm Calm - N/A   Clear
7:30 AM 64.4 °F - 64.4 °F 100% 30.04 in - Calm Calm - N/A   Clear
8:00 AM 66.2 °F - 66.2 °F 100% 30.04 in - Calm Calm - N/A   Clear
8:30 AM 68.0 °F - 66.2 °F 94% 30.04 in - ENE 4.6 mph - N/A   Clear
9:00 AM 69.8 °F - 66.2 °F 88% 30.04 in - ENE 4.6 mph - N/A   Clear
9:30 AM 69.8 °F - 66.2 °F 88% 30.04 in - East 8.1 mph - N/A   Clear
10:00 AM 73 °F - 66 °F 74% 29.98 in 6 mi East 6.9 mph - -  
10:00 AM 73.4 °F - 66.2 °F 78% 30.04 in - East 5.8 mph - N/A   Clear
10:30 AM 75.2 °F - 66.2 °F 73% 30.04 in - ENE 6.9 mph - N/A   Clear
11:00 AM 75.2 °F - 68.0 °F 78% 30.04 in - NE 6.9 mph - N/A   Clear
11:30 AM 77.0 °F - 66.2 °F 69% 30.04 in - NNE 6.9 mph - N/A   Clear
12:00 PM 80.6 °F 82.3 °F 64.4 °F 58% 30.04 in - ENE 5.8 mph - N/A   Clear
12:30 PM 80.6 °F 82.7 °F 66.2 °F 61% 30.04 in 6.2 mi NE 4.6 mph - N/A   Partly Cloudy
1:00 PM 83 °F - 65 °F 44% 29.93 in 6 mi North 3.5 mph - -   Scattered Clouds
1:00 PM 82.4 °F 84.6 °F 66.2 °F 58% - 6.2 mi NNE 3.5 mph - N/A   Partly Cloudy
1:30 PM 84.2 °F 85.6 °F 64.4 °F 51% 30.01 in 6.2 mi East 3.5 mph - N/A   Partly Cloudy
2:00 PM 87.8 °F 89.4 °F 64.4 °F 46% 29.98 in 6.2 mi Calm Calm - N/A   Partly Cloudy
2:30 PM 87.8 °F 89.4 °F 64.4 °F 46% 29.98 in 6.2 mi NW 4.6 mph - N/A   Partly Cloudy
3:00 PM 86.0 °F 86.6 °F 62.6 °F 45% 29.98 in 6.2 mi Calm Calm - N/A   Scattered Clouds
3:30 PM 87.8 °F 88.5 °F 62.6 °F 43% 29.95 in 6.2 mi Variable 4.6 mph - N/A   Scattered Clouds
4:00 PM 89 °F - 62 °F 31% 29.84 in 6 mi NNE 2.3 mph - -   Partly Cloudy
4:00 PM 89.6 °F 90.1 °F 62.6 °F 40% 29.95 in 6.2 mi Variable 2.3 mph - N/A   Scattered Clouds
4:30 PM 89.6 °F 89.5 °F 60.8 °F 38% 29.95 in 6.2 mi NNE 5.8 mph - N/A   Scattered Clouds
5:00 PM 91.4 °F 91.4 °F 60.8 °F 36% 29.95 in 6.2 mi WNW 3.5 mph - N/A   Scattered Clouds
5:30 PM 89.6 °F 89.5 °F 60.8 °F 38% 29.92 in 6.2 mi NW 4.6 mph - N/A   Scattered Clouds
6:00 PM 89.6 °F 88.9 °F 59.0 °F 36% 29.92 in 6.2 mi NNE 3.5 mph - N/A   Scattered Clouds
6:30 PM 89.6 °F 88.1 °F 57.2 °F 33% 29.92 in 6.2 mi North 3.5 mph - N/A   Scattered Clouds
7:00 PM 88 °F - 58 °F 26% 29.82 in 6 mi NE 3.5 mph - -   Partly Cloudy
7:00 PM 87.8 °F 87.1 °F 59.0 °F 38% 29.92 in 6.2 mi NE 3.5 mph - N/A   Scattered Clouds
7:30 PM 86.0 °F 84.9 °F 57.2 °F 37% 29.92 in 6.2 mi Calm Calm - N/A   Scattered Clouds
8:00 PM 84.2 °F 83.5 °F 57.2 °F 40% 29.92 in 6.2 mi NNE 2.3 mph - N/A   Scattered Clouds
8:30 PM 82.4 °F 82.5 °F 59.0 °F 45% 29.92 in 6.2 mi Calm Calm - N/A   Scattered Clouds
9:00 PM 82.4 °F 82.0 °F 57.2 °F 42% 29.95 in 6.2 mi North 3.5 mph - N/A   Partly Cloudy
9:30 PM 78.8 °F - 60.8 °F 54% 29.95 in 6.2 mi North 8.1 mph - N/A   Partly Cloudy
10:00 PM 77 °F - 61 °F 48% 29.90 in 6 mi NNE 9.2 mph - -   Scattered Clouds
10:00 PM 77.0 °F - 60.8 °F 57% 29.98 in 6.2 mi North 10.4 mph - N/A   Partly Cloudy
10:30 PM 75.2 °F - 60.8 °F 61% 29.98 in 6.2 mi NNE 8.1 mph - N/A   Partly Cloudy
11:00 PM 73.4 °F - 60.8 °F 65% 29.98 in - NNE 9.2 mph - N/A   Clear
11:30 PM 73.4 °F - 60.8 °F 65% 29.98 in - NE 6.9 mph - N/A   Clear